When you browse on this site, cookies collect data to enhance your experience and personalize the content and advertising you see.
Visit our Privacy Policy to learn more. By continuing to use the site, you agree to this use of cookies and data.
  • In Portugal
  • List of Countries
  • For 7 days
  • Water Temperature
  • Weather Map
  • Weather Widgets
  • user-avatar
    Login

    Hourly Weather Luchek

    Today, 25 August, Sunday

    Time Temperature Precipitation Wind Pressure Humidity
    00:00 +18°C° 0 mm 1 mps 637 mmHg 61%
    01:00 +18°C° 0 mm 1 mps 637 mmHg 61%
    02:00 +18°C° 0 mm 1 mps 637 mmHg 61%
    03:00 +18°C° 0 mm 1 mps 637 mmHg 61%
    04:00 +18°C° 0 mm 1 mps 637 mmHg 61%
    05:00 +18°C° 0 mm 1 mps 637 mmHg 61%
    06:00 +19°C° 0 mm 1 mps 637 mmHg 61%
    07:00 +21°C° 0 mm 1 mps 638 mmHg 54%
    08:00 +23°C° 0 mm 1 mps 639 mmHg 46%
    09:00 +25°C° 0 mm 2 mps 640 mmHg 39%
    10:00 +25°C° 0 mm 2 mps 640 mmHg 38%
    11:00 +26°C° 0 mm 3 mps 640 mmHg 38%
    12:00 +27°C° 0 mm 3 mps 639 mmHg 37%
    13:00 +26°C° 0 mm 3 mps 639 mmHg 38%
    14:00 +26°C° 0 mm 3 mps 639 mmHg 39%
    15:00 +26°C° 0 mm 3 mps 639 mmHg 40%
    16:00 +25°C° 0 mm 2 mps 638 mmHg 45%
    17:00 +23°C° 0 mm 2 mps 638 mmHg 50%
    18:00 +21°C° 0 mm 2 mps 637 mmHg 54%
    19:00 +21°C° 0 mm 1 mps 637 mmHg 54%
    20:00 +20°C° 0 mm 1 mps 638 mmHg 54%
    21:00 +19°C° 0 mm 1 mps 638 mmHg 54%
    22:00 +19°C° 0 mm 1 mps 637 mmHg 55%
    23:00 +18°C° 0 mm 1 mps 637 mmHg 56%

    Tomorrow, 26 August, Monday

    Time Temperature Precipitation Wind Pressure Humidity
    00:00 +16°C° 0 mm 1 mps 637 mmHg 57%
    01:00 +15°C° 0 mm 0 mps 637 mmHg 59%
    02:00 +14°C° 0 mm 0 mps 637 mmHg 61%
    03:00 +14°C° 0 mm 0 mps 637 mmHg 62%
    04:00 +14°C° 0 mm 0 mps 637 mmHg 62%
    05:00 +15°C° 0 mm 0 mps 638 mmHg 62%
    06:00 +16°C° 0 mm 0 mps 638 mmHg 63%
    07:00 +19°C° 0 mm 1 mps 639 mmHg 58%
    08:00 +21°C° 0 mm 1 mps 639 mmHg 54%
    09:00 +21°C° 0 mm 2 mps 640 mmHg 49%
    10:00 +23°C° 0.1 mm 2 mps 640 mmHg 50%
    11:00 +22°C° 0.1 mm 3 mps 640 mmHg 52%
    12:00 +24°C° 0.1 mm 3 mps 640 mmHg 53%
    13:00 +24°C° 0.4 mm 3 mps 640 mmHg 54%
    14:00 +22°C° 0.4 mm 3 mps 640 mmHg 55%
    15:00 +23°C° 0.4 mm 2 mps 640 mmHg 56%
    16:00 +21°C° 0.3 mm 2 mps 639 mmHg 62%
    17:00 +20°C° 0.3 mm 2 mps 639 mmHg 67%
    18:00 +20°C° 0.3 mm 1 mps 639 mmHg 72%
    19:00 +19°C° 0.1 mm 1 mps 639 mmHg 75%
    20:00 +18°C° 0.1 mm 1 mps 639 mmHg 79%
    21:00 +14°C° 0.1 mm 0 mps 639 mmHg 82%
    22:00 +15°C° 0.1 mm 1 mps 639 mmHg 84%
    23:00 +15°C° 0.1 mm 1 mps 639 mmHg 87%

    Day after tomorrow, 27 August, Tuesday

    Time Temperature Precipitation Wind Pressure Humidity
    00:00 +15°C° 0.1 mm 1 mps 639 mmHg 89%
    01:00 +14°C° 0 mm 1 mps 639 mmHg 87%
    02:00 +14°C° 0 mm 1 mps 639 mmHg 85%
    03:00 +14°C° 0 mm 1 mps 638 mmHg 82%
    04:00 +15°C° 0 mm 1 mps 638 mmHg 79%
    05:00 +15°C° 0 mm 1 mps 638 mmHg 76%
    06:00 +15°C° 0 mm 1 mps 638 mmHg 72%
    07:00 +18°C° 0 mm 1 mps 639 mmHg 66%
    08:00 +19°C° 0 mm 1 mps 639 mmHg 60%
    09:00 +20°C° 0 mm 2 mps 640 mmHg 53%
    10:00 +21°C° 0.1 mm 2 mps 640 mmHg 54%
    11:00 +22°C° 0.1 mm 3 mps 640 mmHg 54%
    12:00 +24°C° 0.1 mm 3 mps 640 mmHg 54%
    13:00 +24°C° 0.4 mm 3 mps 639 mmHg 56%
    14:00 +24°C° 0.4 mm 3 mps 639 mmHg 57%
    15:00 +24°C° 0.4 mm 3 mps 638 mmHg 58%
    16:00 +23°C° 0.2 mm 2 mps 638 mmHg 63%
    17:00 +20°C° 0.2 mm 2 mps 637 mmHg 69%
    18:00 +19°C° 0.2 mm 2 mps 637 mmHg 74%
    19:00 +18°C° 0 mm 2 mps 637 mmHg 76%
    20:00 +18°C° 0 mm 1 mps 636 mmHg 79%
    21:00 +16°C° 0 mm 1 mps 636 mmHg 81%
    22:00 +16°C° 0 mm 1 mps 636 mmHg 80%
    23:00 +16°C° 0 mm 1 mps 636 mmHg 78%

    28 August, Wednesday

    Time Temperature Precipitation Wind Pressure Humidity
    00:00 +16°C° 0 mm 1 mps 636 mmHg 77%
    01:00 +15°C° 0 mm 1 mps 635 mmHg 77%
    02:00 +15°C° 0 mm 1 mps 635 mmHg 77%
    03:00 +15°C° 0 mm 1 mps 635 mmHg 77%
    04:00 +15°C° 0 mm 1 mps 635 mmHg 76%
    05:00 +14°C° 0 mm 0 mps 635 mmHg 75%
    06:00 +15°C° 0 mm 0 mps 636 mmHg 74%
    07:00 +19°C° 0 mm 1 mps 636 mmHg 68%
    08:00 +21°C° 0 mm 1 mps 637 mmHg 61%
    09:00 +23°C° 0 mm 2 mps 638 mmHg 55%
    10:00 +23°C° 0.4 mm 2 mps 638 mmHg 55%
    11:00 +24°C° 0.4 mm 3 mps 638 mmHg 55%
    12:00 +24°C° 0.4 mm 3 mps 638 mmHg 55%
    13:00 +24°C° 0.5 mm 3 mps 638 mmHg 55%
    14:00 +24°C° 0.5 mm 3 mps 637 mmHg 55%
    15:00 +24°C° 0.5 mm 3 mps 637 mmHg 55%
    16:00 +23°C° 0.1 mm 2 mps 637 mmHg 61%
    17:00 +21°C° 0.1 mm 2 mps 636 mmHg 68%
    18:00 +20°C° 0.1 mm 1 mps 636 mmHg 74%
    19:00 +19°C° 0 mm 1 mps 636 mmHg 77%
    20:00 +18°C° 0 mm 1 mps 636 mmHg 81%
    21:00 +16°C° 0 mm 1 mps 636 mmHg 85%
    22:00 +16°C° 0 mm 1 mps 636 mmHg 85%
    23:00 +15°C° 0 mm 1 mps 636 mmHg 86%

    29 August, Thursday

    Time Temperature Precipitation Wind Pressure Humidity
    00:00 +15°C° 0 mm 1 mps 636 mmHg 87%
    01:00 +15°C° 0 mm 1 mps 636 mmHg 87%
    02:00 +14°C° 0 mm 1 mps 636 mmHg 88%
    03:00 +14°C° 0 mm 2 mps 636 mmHg 89%
    04:00 +14°C° 0 mm 2 mps 636 mmHg 89%
    05:00 +15°C° 0 mm 1 mps 636 mmHg 89%
    06:00 +15°C° 0 mm 1 mps 637 mmHg 89%
    07:00 +17°C° 0 mm 2 mps 637 mmHg 82%
    08:00 +19°C° 0 mm 2 mps 638 mmHg 75%
    09:00 +20°C° 0 mm 3 mps 638 mmHg 68%
    10:00 +21°C° 0.2 mm 3 mps 638 mmHg 68%
    11:00 +21°C° 0.2 mm 3 mps 638 mmHg 68%
    12:00 +22°C° 0.2 mm 3 mps 638 mmHg 68%
    13:00 +22°C° 0.3 mm 3 mps 638 mmHg 69%
    14:00 +21°C° 0.3 mm 3 mps 638 mmHg 69%
    15:00 +21°C° 0.3 mm 3 mps 638 mmHg 70%
    16:00 +20°C° 0.1 mm 3 mps 637 mmHg 74%
    17:00 +20°C° 0.1 mm 2 mps 637 mmHg 78%
    18:00 +19°C° 0.1 mm 2 mps 637 mmHg 82%
    19:00 +18°C° 0 mm 2 mps 637 mmHg 84%
    20:00 +17°C° 0 mm 2 mps 637 mmHg 86%
    21:00 +16°C° 0 mm 1 mps 637 mmHg 88%
    22:00 +16°C° 0 mm 1 mps 637 mmHg 88%
    23:00 +15°C° 0 mm 1 mps 637 mmHg 88%

    30 August, Friday

    Time Temperature Precipitation Wind Pressure Humidity
    00:00 +15°C° 0 mm 1 mps 637 mmHg 89%
    01:00 +14°C° 0 mm 1 mps 636 mmHg 89%
    02:00 +14°C° 0 mm 1 mps 636 mmHg 89%
    03:00 +14°C° 0 mm 1 mps 636 mmHg 90%
    04:00 +14°C° 0.1 mm 1 mps 636 mmHg 90%
    05:00 +14°C° 0.1 mm 1 mps 636 mmHg 91%
    06:00 +14°C° 0.1 mm 1 mps 636 mmHg 91%
    07:00 +16°C° 0 mm 2 mps 637 mmHg 88%
    08:00 +17°C° 0 mm 2 mps 637 mmHg 84%
    09:00 +18°C° 0 mm 2 mps 638 mmHg 80%
    10:00 +19°C° 0.2 mm 2 mps 638 mmHg 79%
    11:00 +19°C° 0.2 mm 2 mps 638 mmHg 78%
    12:00 +20°C° 0.2 mm 3 mps 639 mmHg 77%
    13:00 +20°C° 0.1 mm 3 mps 638 mmHg 77%
    14:00 +19°C° 0.1 mm 3 mps 638 mmHg 78%
    15:00 +19°C° 0.1 mm 2 mps 638 mmHg 78%
    16:00 +18°C° 0 mm 2 mps 637 mmHg 82%
    17:00 +17°C° 0 mm 2 mps 637 mmHg 87%
    18:00 +18°C° 0 mm 1 mps 637 mmHg 91%
    19:00 +16°C° 0.3 mm 1 mps 637 mmHg 93%
    20:00 +16°C° 0.3 mm 1 mps 637 mmHg 94%
    21:00 +15°C° 0.3 mm 1 mps 637 mmHg 96%
    22:00 +15°C° 0 mm 1 mps 637 mmHg 96%
    23:00 +15°C° 0 mm 1 mps 637 mmHg 96%
    Show more